Regional Weather Roundup
Issued by NWS

Home | Current Version | Previous Version | Text Only | Print | Product List | Glossary On
Versions: 1 2 3 4 5 6 7 8 9 10 11 12 13 14 15 16 17 18 19 20 21 22 23 24 25 26 27 28 29 30 31 32 33 34 35 36 37 38 39 40 41 42 43 44 45 46 47 48 49 50
000
ASUS45 KBOU 272107
RWRCO

WEATHER ROUNDUP FOR COLORADO
NATIONAL WEATHER SERVICE DENVER/BOULDER CO
300 PM MDT THU AUG 27 2015

NOTE: "FAIR" INDICATES FEW OR NO CLOUDS BELOW 12000 FEET WITH NO
SIGNIFICANT WEATHER AND/OR OBSTRUCTIONS TO VISIBILITY.

COZ001>005-013-030-031-272200-
...NORTHWEST COLORADO...

CITY           SKY/WX    TMP DP  RH WIND       PRES   REMARKS
CRAIG          TSTM      63  56  78 MISG      30.30R VSB 1/2
HAYDEN         NOT AVBL
MEEKER         CLOUDY    71  55  56 NW7       30.30F
MOUNT WERNER   NOT AVBL
STEAMBOAT SPGS CLOUDY    62  55  80 E6        30.32S
WALDEN         CLOUDY    63  46  55 NW12      30.37S
$$

COZ006>008-011-272200-
...WEST CENTRAL VALLEYS...

CITY           SKY/WX    TMP DP  RH WIND       PRES   REMARKS
GRAND JUNCTION FAIR      80  59  48 VRB6      30.20F
MONTROSE       FAIR      77  57  50 N10G17    30.28F
EAGLE          PTSUNNY   68  55  64 S7        30.32S
RIFLE          LGT RAIN  73  59  61 VRB5      30.25F
DELTA          HVY RAIN  81  56  41 W9        30.23F
NUCLA          FAIR      77  54  44 N7        30.31F
$$

COZ017>023-064>068-272200-
...SOUTHWEST COLORADO...

CITY           SKY/WX    TMP DP  RH WIND       PRES   REMARKS
DURANGO        TSTM      63  57  81 E10       30.31F
CORTEZ         FAIR      81  53  37 W12       30.26F
PAGOSA SPRINGS PTSUNNY   62  55  75 CALM      30.39F
TELLURIDE      CLOUDY    62  51  67 CALM      30.51F
WOLF CREEK PAS FOG       46  46 100 SW10      30.68F VSB<1/4
$$

COZ009-010-012-014-032>034-037-058>063-272200-
...CENTRAL COLORADO...

CITY           SKY/WX    TMP DP  RH WIND       PRES   REMARKS
ASPEN          LGT RAIN  60  53  77 NE3       30.40S
BUENA VISTA    CLOUDY    71  42  35 W17       30.34S
COPPER MTN     RAIN      50  43  76 W24G30    30.64S
BERTHOUD PASS  HAZE      41  30  65 MISG      30.66F VSB 1/2
COTTONWOOD PAS CLOUDY    66  43  42 W17G26    30.48F
GUNNISON       CLOUDY    70  48  46 NE6       30.40F
KREMMLING      DRIZZLE   63  54  72 E3        30.36F
LEADVILLE      PTSUNNY   60  42  51 NW17      30.49S
MONARCH PASS   LGT RAIN  45  43  93 W26G32    30.74S VSB<1/4
SALIDA         PTSUNNY   75  46  34 SW17G25   30.38F
SUNLIGHT       CLOUDY    55  52  88 CALM      30.61S
WILKERSON PASS PTSUNNY   59  39  47 NW3       30.59F
$$

COZ069>075-272200-
...SAN LUIS VALLEY/SANGRE DE CRISTO MOUNTAINS...

CITY           SKY/WX    TMP DP  RH WIND       PRES   REMARKS
ALAMOSA        PTSUNNY   76  45  33 NW10      30.31F
LA VETA PASS   FAIR      70  43  37 S9G18     30.49F
SAGUACHE       CLOUDY    70  46  43 NW16      30.37F
$$

COZ035-036-038>040-272200-
...NORTHERN COLORADO FRONT RANGE...

CITY           SKY/WX    TMP DP  RH WIND       PRES   REMARKS
DENVER INTL AP PTSUNNY   84  48  28 N14       30.11S
DMNS CITY PARK   N/A     85  46  25 N9G24     30.11R
AURORA         PTSUNNY   85  47  26 NW9       30.12F
FRONT RANGE AP PTSUNNY   82  45  26 MISG      30.12F
ERIE MUNI ARPT PTSUNNY   83  47  29 N9G16     30.10R
BOULDER MUN AP PTSUNNY   82  46  28 NW16G30   30.12R
CENTENNIAL     PTSUNNY   82  48  30 N14       30.14F
BROOMFIELD     PTSUNNY   82  46  28 W15G23    30.15S
FORT COLLINS   PTSUNNY   72  55  56 NW7       30.15R
LONGMONT       CLOUDY    76  60  57 N9G25     30.14R
$$

COZ041-046-047-076>085-087-088-272200-
...PIKES PEAK/PALMER DIVIDE AND SOUTHERN FOOTHILLS...

CITY           SKY/WX    TMP DP  RH WIND       PRES   REMARKS
COLO. SPRINGS  PTSUNNY   82  46  28 NW5       30.18F
A. F. ACADEMY  FAIR      78  49  35 SW6       30.19F
ELLICOTT       FAIR     N/A N/A N/A N8        30.16S
FALCON         CLOUDY    79  47  32 N13G23    30.24F
FORT CARSON    FAIR      77  56  47 NE5       30.14F
LIMON          FAIR      83  50  31 NW14G23   30.11S
MONUMENT HILL  FAIR      77  43  29 NE5       30.24F
TRINIDAD       CLOUDY    86  43  22 VRB5      30.12F
$$

COZ042>045-048>051-090-091-272200-
...NORTHEAST COLORADO...

CITY           SKY/WX    TMP DP  RH WIND       PRES   REMARKS
GREELEY ARPT   PTSUNNY   79  52  38 NW22G29   30.10R
AKRON          FAIR      88  47  24 NW14G30   30.03F
BURLINGTON     FAIR      92  48  22 NW18      30.00F
WRAY           FAIR      93  48  21 NW16G23   29.94F
STERLING       FAIR      88  55  33 N18G24    29.99S
HOLYOKE        FAIR      91  61  35 N20G26    29.96S
FORT MORGAN    CLOUDY    87  44  22 NW20      30.05S
$$

COZ086-089-092>099-272200-
...SOUTHEAST COLORADO...

CITY           SKY/WX    TMP DP  RH WIND       PRES   REMARKS
PUEBLO         PTSUNNY   87  51  28 N23G32    30.04S
LA JUNTA       FAIR      96  48  19 VRB7      29.99F
LAMAR          FAIR      92  51  24 W3        29.95F
SPRINGFIELD      N/A     89  48  24 VRB5      30.01F
$$



USA.gov is the U.S. government's official web portal to all federal, state and local government web resources and services.